Location: Betz
(49.1556°N, 2.9558°E)
Time: 02:13:29
(UTC+00:00)

Cosmos 1437 Rocket - Pass Details

Date: 18 September 2019
Orbit: 506 x 563 km, 81.2° (Epoch: 18 October)

Event Time Altitude Azimuth Distance (km) Brightness Sun altitude
Rises 19:17:12 0° 357° (N) 2,650 6.6 -13.9°
Reaches altitude 10° 19:19:37 10° 10° (N) 1,749 5.5 -14.3°
Maximum altitude 19:22:54 26° 69° (ENE) 1,027 3.8 -14.8°
Enters shadow 19:23:29 25° 85° (E) 1,056 3.7 -14.8°
